| time (UTC) | temp F | wind direction | speed MPH | gust MPH | rain 1hr in | rain 24hr in | rain mn in | humidity % | barometer mb |
| 20260902175455 | 92 | 273 | 0.0 | 3.0 | 0.00 | 0.03 | 0.00 | 64 | 1013.9 |
| 20260902174955 | 92 | 225 | 1.0 | 2.0 | 0.00 | 0.03 | 0.00 | 65 | 1013.9 |
| 20260902174455 | 91 | 288 | 2.0 | 4.0 | 0.00 | 0.03 | 0.00 | 64 | 1014.0 |
| 20260902173955 | 91 | 285 | 1.0 | 3.0 | 0.00 | 0.03 | 0.00 | 65 | 1014.0 |
| 20260902173456 | 91 | 279 | 1.0 | 3.0 | 0.00 | 0.03 | 0.00 | 65 | 1014.2 |
| 20260902172955 | 92 | 270 | 2.0 | 3.0 | 0.00 | 0.03 | 0.00 | 66 | 1014.3 |
| 20260902172458 | 91 | 273 | 1.0 | 3.0 | 0.00 | 0.03 | 0.00 | 66 | 1014.3 |
| 20260902171955 | 91 | 307 | 1.0 | 2.0 | 0.00 | 0.03 | 0.00 | 68 | 1014.4 |
| 20260902171455 | 91 | 315 | 2.0 | 3.0 | 0.00 | 0.03 | 0.00 | 67 | 1014.5 |
| 20260902170958 | 90 | 205 | 1.0 | 3.0 | 0.00 | 0.03 | 0.00 | 67 | 1014.5 |
| 20260902170456 | 90 | 284 | 1.0 | 3.0 | 0.00 | 0.03 | 0.00 | 69 | 1014.6 |
| 20260902165955 | 89 | 273 | 1.0 | 4.0 | 0.00 | 0.03 | 0.00 | 70 | 1014.7 |
| 20260902165455 | 89 | 280 | 1.0 | 5.0 | 0.00 | 0.03 | 0.00 | 71 | 1014.8 |
| 20260902164958 | 89 | 273 | 3.0 | 7.0 | 0.00 | 0.03 | 0.00 | 71 | 1014.7 |
| 20260902164455 | 89 | 292 | 1.0 | 4.0 | 0.00 | 0.03 | 0.00 | 73 | 1014.6 |
| 20260902163958 | 88 | 321 | 1.0 | 3.0 | 0.00 | 0.03 | 0.00 | 75 | 1014.6 |
| 20260902163459 | 87 | 290 | 2.0 | 5.0 | 0.00 | 0.03 | 0.00 | 77 | 1014.7 |
| 20260902162958 | 87 | 296 | 2.0 | 4.0 | 0.00 | 0.03 | 0.00 | 78 | 1014.8 |
| 20260902162456 | 87 | 281 | 3.0 | 5.0 | 0.00 | 0.03 | 0.00 | 78 | 1015.0 |
| 20260902161958 | 86 | 273 | 2.0 | 3.0 | 0.00 | 0.03 | 0.00 | 79 | 1015.0 |
| 20260902161458 | 86 | 269 | 1.0 | 3.0 | 0.00 | 0.03 | 0.00 | 81 | 1015.1 |
| 20260902160956 | 85 | 298 | 1.0 | 3.0 | 0.00 | 0.03 | 0.00 | 82 | 1015.1 |
| 20260902160456 | 84 | 286 | 2.0 | 3.0 | 0.00 | 0.03 | 0.00 | 83 | 1015.1 |
| 20260902155955 | 84 | 292 | 2.0 | 4.0 | 0.00 | 0.03 | 0.00 | 83 | 1015.0 |
| 20260902155455 | 84 | 268 | 1.0 | 4.0 | 0.00 | 0.03 | 0.00 | 83 | 1015.0 |
| 20260902154955 | 84 | 269 | 1.0 | 5.0 | 0.00 | 0.03 | 0.00 | 83 | 1014.9 |
| 20260902154456 | 83 | 262 | 2.0 | 3.0 | 0.00 | 0.03 | 0.00 | 84 | 1015.0 |
| 20260902153956 | 83 | 316 | 3.0 | 4.0 | 0.00 | 0.03 | 0.00 | 85 | 1015.1 |
| 20260902153459 | 83 | 273 | 1.0 | 4.0 | 0.00 | 0.03 | 0.00 | 85 | 1015.0 |
| 20260902152955 | 83 | 336 | 1.0 | 3.0 | 0.00 | 0.03 | 0.00 | 85 | 1014.9 |
| 20260902152455 | 83 | 279 | 1.0 | 2.0 | 0.00 | 0.03 | 0.00 | 85 | 1014.8 |
| 20260902151955 | 83 | 286 | 1.0 | 3.0 | 0.00 | 0.03 | 0.00 | 85 | 1015.0 |
| 20260902151455 | 83 | 288 | 1.0 | 3.0 | 0.00 | 0.03 | 0.00 | 86 | 1015.0 |
| 20260902150956 | 83 | 280 | 0.0 | 2.0 | 0.00 | 0.03 | 0.00 | 86 | 1015.0 |
| 20260902150455 | 83 | 280 | 0.0 | 3.0 | 0.00 | 0.03 | 0.00 | 87 | 1014.9 |
| 20260902145958 | 82 | 289 | 0.0 | 2.0 | 0.00 | 0.03 | 0.00 | 87 | 1014.9 |
| 20260902145455 | 82 | 289 | 0.0 | 2.0 | 0.00 | 0.03 | 0.00 | 87 | 1015.0 |
| 20260902144955 | 82 | 289 | 1.0 | 2.0 | 0.00 | 0.03 | 0.00 | 87 | 1014.8 |
| 20260902144456 | 82 | 292 | 2.0 | 3.0 | 0.00 | 0.03 | 0.00 | 87 | 1014.9 |
| 20260902143955 | 82 | 293 | 1.0 | 6.0 | 0.00 | 0.03 | 0.00 | 88 | 1014.9 |
| 20260902143458 | 82 | 271 | 0.0 | 0.0 | 0.00 | 0.03 | 0.00 | 88 | 1014.8 |
| 20260902142955 | 82 | 271 | 0.0 | 2.0 | 0.00 | 0.03 | 0.00 | 88 | 1014.9 |
| 20260902142459 | 82 | 277 | 0.0 | 5.0 | 0.00 | 0.03 | 0.00 | 88 | 1014.9 |
| 20260902141955 | 82 | 273 | 2.0 | 4.0 | 0.00 | 0.03 | 0.00 | 88 | 1014.8 |
| 20260902141455 | 82 | 283 | 0.0 | 2.0 | 0.00 | 0.03 | 0.00 | 88 | 1014.8 |
| 20260902140958 | 81 | 284 | 0.0 | 3.0 | 0.00 | 0.03 | 0.00 | 88 | 1014.8 |
| 20260902140455 | 81 | 278 | 2.0 | 3.0 | 0.00 | 0.03 | 0.00 | 89 | 1014.8 |
| 20260902135955 | 81 | 295 | 0.0 | 3.0 | 0.00 | 0.03 | 0.00 | 89 | 1014.7 |
| 20260902135455 | 81 | 279 | 1.0 | 1.0 | 0.00 | 0.03 | 0.00 | 89 | 1014.7 |
| 20260902134956 | 81 | 279 | 1.0 | 2.0 | 0.00 | 0.03 | 0.00 | 89 | 1014.7 |
| 20260902134455 | 81 | 279 | 0.0 | 2.0 | 0.00 | 0.03 | 0.00 | 89 | 1014.7 |
| 20260902133955 | 81 | 290 | 1.0 | 2.0 | 0.00 | 0.03 | 0.00 | 89 | 1014.8 |
| 20260902133456 | 81 | 292 | 0.0 | 2.0 | 0.00 | 0.03 | 0.00 | 90 | 1014.8 |
| 20260902132958 | 81 | 290 | 0.0 | 2.0 | 0.00 | 0.03 | 0.00 | 90 | 1014.7 |
| 20260902132455 | 81 | 301 | 1.0 | 2.0 | 0.00 | 0.03 | 0.00 | 90 | 1014.6 |
| 20260902131955 | 81 | 305 | 0.0 | 2.0 | 0.00 | 0.03 | 0.00 | 90 | 1014.7 |
| 20260902131456 | 81 | 279 | 0.0 | 1.0 | 0.00 | 0.03 | 0.00 | 90 | 1014.5 |
| 20260902130955 | 81 | 279 | 0.0 | 1.0 | 0.00 | 0.03 | 0.00 | 90 | 1014.4 |
| 20260902130455 | 80 | 279 | 0.0 | 2.0 | 0.00 | 0.03 | 0.00 | 90 | 1014.3 |
| 20260902125955 | 80 | 277 | 0.0 | 4.0 | 0.00 | 0.03 | 0.00 | 90 | 1014.2 |
| 20260902125455 | 80 | 277 | 0.0 | 2.0 | 0.00 | 0.03 | 0.00 | 90 | 1014.1 |
| 20260902124955 | 80 | 275 | 0.0 | 1.0 | 0.00 | 0.03 | 0.00 | 90 | 1014.2 |
| 20260902124458 | 80 | 275 | 0.0 | 2.0 | 0.00 | 0.03 | 0.00 | 90 | 1014.1 |
| 20260902123956 | 80 | 275 | 0.0 | 1.0 | 0.00 | 0.03 | 0.00 | 90 | 1014.0 |
| 20260902123458 | 81 | 276 | 0.0 | 3.0 | 0.00 | 0.03 | 0.00 | 90 | 1013.9 |
| 20260902122955 | 81 | 297 | 0.0 | 2.0 | 0.00 | 0.03 | 0.00 | 90 | 1013.8 |
| 20260902122456 | 81 | 286 | 0.0 | 1.0 | 0.00 | 0.03 | 0.00 | 90 | 1013.6 |
| 20260902121955 | 81 | 286 | 0.0 | 1.0 | 0.00 | 0.03 | 0.00 | 90 | 1013.3 |
| 20260902121456 | 81 | 283 | 0.0 | 1.0 | 0.00 | 0.03 | 0.00 | 90 | 1013.1 |
| 20260902120955 | 81 | 270 | 0.0 | 3.0 | 0.00 | 0.03 | 0.00 | 90 | 1013.0 |
| 20260902120455 | 81 | 286 | 0.0 | 3.0 | 0.00 | 0.03 | 0.00 | 90 | 1013.0 |
| 20260902115958 | 81 | 268 | 3.0 | 3.0 | 0.00 | 0.03 | 0.00 | 90 | 1012.9 |
| 20260902115455 | 81 | 271 | 0.0 | 3.0 | 0.00 | 0.03 | 0.00 | 90 | 1013.0 |
| 20260902114955 | 81 | 269 | 0.0 | 3.0 | 0.00 | 0.03 | 0.00 | 89 | 1013.0 |
| 20260902114458 | 81 | 268 | 0.0 | 0.0 | 0.00 | 0.03 | 0.00 | 89 | 1012.9 |
| 20260902113956 | 81 | 268 | 0.0 | 5.0 | 0.00 | 0.03 | 0.00 | 89 | 1013.1 |
| 20260902113458 | 81 | 298 | 3.0 | 5.0 | 0.00 | 0.03 | 0.00 | 89 | 1013.0 |
| 20260902112955 | 81 | 278 | 0.0 | 1.0 | 0.00 | 0.03 | 0.00 | 89 | 1013.1 |
| 20260902112455 | 81 | 273 | 0.0 | 2.0 | 0.00 | 0.03 | 0.00 | 89 | 1013.1 |
| 20260902111955 | 81 | 273 | 1.0 | 3.0 | 0.00 | 0.03 | 0.00 | 89 | 1013.0 |
| 20260902111458 | 81 | 287 | 0.0 | 3.0 | 0.00 | 0.03 | 0.00 | 89 | 1012.9 |
| 20260902110955 | 81 | 273 | 0.0 | 3.0 | 0.00 | 0.03 | 0.00 | 89 | 1012.9 |
| 20260902110456 | 81 | 280 | 0.0 | 2.0 | 0.00 | 0.03 | 0.00 | 89 | 1012.9 |
| 20260902105955 | 81 | 288 | 0.0 | 0.0 | 0.00 | 0.03 | 0.00 | 88 | 1012.9 |
| 20260902105455 | 81 | 288 | 0.0 | 0.0 | 0.00 | 0.03 | 0.00 | 88 | 1012.9 |
| 20260902104955 | 81 | 288 | 0.0 | 2.0 | 0.00 | 0.03 | 0.00 | 88 | 1012.9 |
| 20260902104458 | 81 | 276 | 0.0 | 3.0 | 0.00 | 0.03 | 0.00 | 88 | 1013.0 |
| 20260902103955 | 81 | 292 | 1.0 | 2.0 | 0.00 | 0.03 | 0.00 | 87 | 1012.9 |
| 20260902103456 | 81 | 292 | 0.0 | 2.0 | 0.00 | 0.03 | 0.00 | 87 | 1012.9 |
| 20260902102955 | 81 | 288 | 2.0 | 3.0 | 0.00 | 0.03 | 0.00 | 87 | 1012.9 |
| 20260902102455 | 81 | 293 | 0.0 | 0.0 | 0.00 | 0.03 | 0.00 | 87 | 1013.0 |
| 20260902101958 | 81 | 293 | 0.0 | 0.0 | 0.00 | 0.03 | 0.00 | 87 | 1013.0 |
| 20260902101455 | 81 | 293 | 0.0 | 2.0 | 0.00 | 0.03 | 0.00 | 87 | 1013.1 |
| 20260902100955 | 81 | 293 | 0.0 | 2.0 | 0.00 | 0.03 | 0.00 | 87 | 1013.1 |
| 20260902100456 | 81 | 292 | 1.0 | 2.0 | 0.00 | 0.03 | 0.00 | 86 | 1013.1 |
| 20260902095955 | 81 | 292 | 2.0 | 2.0 | 0.00 | 0.03 | 0.00 | 86 | 1013.1 |
| 20260902095455 | 81 | 293 | 0.0 | 3.0 | 0.00 | 0.03 | 0.00 | 86 | 1013.1 |
| 20260902094955 | 81 | 288 | 0.0 | 3.0 | 0.00 | 0.03 | 0.00 | 86 | 1012.9 |
| 20260902094455 | 81 | 273 | 1.0 | 3.0 | 0.00 | 0.03 | 0.00 | 86 | 1012.8 |
| 20260902093955 | 81 | 266 | 1.0 | 3.0 | 0.00 | 0.03 | 0.00 | 86 | 1013.0 |
| 20260902093455 | 81 | 273 | 1.0 | 3.0 | 0.00 | 0.03 | 0.00 | 86 | 1013.0 |
| 20260902092959 | 81 | 275 | 2.0 | 3.0 | 0.00 | 0.03 | 0.00 | 86 | 1012.9 |
| 20260902092458 | 82 | 282 | 0.0 | 4.0 | 0.00 | 0.03 | 0.00 | 86 | 1012.9 |
| 20260902091955 | 82 | 282 | 0.0 | 2.0 | 0.00 | 0.03 | 0.00 | 85 | 1012.9 |
| 20260902091455 | 82 | 279 | 2.0 | 2.0 | 0.00 | 0.03 | 0.00 | 85 | 1012.9 |
| 20260902090959 | 81 | 279 | 1.0 | 3.0 | 0.00 | 0.03 | 0.00 | 85 | 1012.9 |
| 20260902090455 | 81 | 280 | 1.0 | 3.0 | 0.00 | 0.03 | 0.00 | 85 | 1013.0 |
| 20260902085956 | 81 | 296 | 0.0 | 3.0 | 0.00 | 0.03 | 0.00 | 84 | 1012.9 |
| 20260902085455 | 81 | 295 | 0.0 | 2.0 | 0.00 | 0.03 | 0.00 | 84 | 1013.0 |
| 20260902084955 | 81 | 295 | 1.0 | 2.0 | 0.00 | 0.03 | 0.00 | 83 | 1012.9 |
| 20260902084458 | 81 | 297 | 1.0 | 3.0 | 0.00 | 0.03 | 0.00 | 83 | 1012.8 |
| 20260902083958 | 81 | 285 | 1.0 | 4.0 | 0.00 | 0.03 | 0.00 | 83 | 1012.8 |
| 20260902083455 | 81 | 281 | 1.0 | 3.0 | 0.00 | 0.03 | 0.00 | 82 | 1012.8 |
| 20260902082956 | 81 | 267 | 1.0 | 3.0 | 0.00 | 0.03 | 0.00 | 82 | 1012.7 |
| 20260902082459 | 81 | 279 | 1.0 | 2.0 | 0.00 | 0.03 | 0.00 | 81 | 1012.7 |
| 20260902081955 | 81 | 284 | 1.0 | 2.0 | 0.00 | 0.03 | 0.00 | 80 | 1012.9 |
| 20260902081458 | 81 | 284 | 1.0 | 2.0 | 0.00 | 0.03 | 0.00 | 80 | 1012.9 |
| 20260902080955 | 82 | 285 | 2.0 | 2.0 | 0.00 | 0.03 | 0.00 | 79 | 1012.8 |
| 20260902080455 | 81 | 284 | 1.0 | 3.0 | 0.00 | 0.03 | 0.00 | 79 | 1012.9 |
| 20260902075955 | 81 | 297 | 1.0 | 3.0 | 0.00 | 0.03 | 0.00 | 78 | 1012.9 |
| 20260902075456 | 81 | 293 | 1.0 | 3.0 | 0.00 | 0.03 | 0.00 | 79 | 1012.9 |
| 20260902074955 | 81 | 293 | 0.0 | 2.0 | 0.00 | 0.03 | 0.00 | 79 | 1012.9 |
| 20260902074455 | 81 | 293 | 1.0 | 2.0 | 0.00 | 0.03 | 0.00 | 78 | 1012.9 |
| 20260902073955 | 81 | 293 | 1.0 | 2.0 | 0.00 | 0.03 | 0.00 | 78 | 1013.1 |
| 20260902073456 | 81 | 293 | 0.0 | 2.0 | 0.00 | 0.03 | 0.00 | 78 | 1013.1 |
| 20260902072955 | 81 | 293 | 0.0 | 2.0 | 0.00 | 0.03 | 0.00 | 79 | 1013.1 |
| 20260902072455 | 81 | 293 | 2.0 | 2.0 | 0.00 | 0.03 | 0.00 | 78 | 1013.1 |
| 20260902071955 | 81 | 293 | 1.0 | 2.0 | 0.00 | 0.03 | 0.00 | 78 | 1013.0 |
| 20260902071455 | 81 | 293 | 1.0 | 1.0 | 0.00 | 0.03 | 0.00 | 78 | 1013.1 |
| 20260902070958 | 81 | 293 | 1.0 | 1.0 | 0.00 | 0.03 | 0.00 | 79 | 1013.2 |
| 20260902070455 | 81 | 293 | 0.0 | 0.0 | 0.00 | 0.03 | 0.00 | 79 | 1013.1 |
| 20260902065956 | 81 | 293 | 0.0 | 0.0 | 0.00 | 0.03 | 0.00 | 79 | 1013.1 |
| 20260902065455 | 81 | 293 | 0.0 | 0.0 | 0.00 | 0.03 | 0.00 | 79 | 1013.1 |
| 20260902064955 | 81 | 293 | 0.0 | 0.0 | 0.00 | 0.03 | 0.00 | 79 | 1013.1 |
| 20260902064458 | 81 | 293 | 0.0 | 0.0 | 0.00 | 0.03 | 0.00 | 80 | 1013.2 |
| 20260902063955 | 81 | 293 | 0.0 | 0.0 | 0.00 | 0.03 | 0.00 | 80 | 1013.3 |
| 20260902063455 | 81 | 293 | 0.0 | 0.0 | 0.00 | 0.03 | 0.00 | 80 | 1013.1 |
| 20260902062955 | 81 | 293 | 0.0 | 0.0 | 0.00 | 0.03 | 0.00 | 80 | 1013.2 |
| 20260902062455 | 81 | 293 | 0.0 | 0.0 | 0.00 | 0.03 | 0.00 | 81 | 1013.1 |
| 20260902061955 | 81 | 293 | 0.0 | 0.0 | 0.00 | 0.03 | 0.00 | 80 | 1013.0 |
| 20260902061456 | 81 | 293 | 0.0 | 0.0 | 0.00 | 0.03 | 0.00 | 80 | 1013.1 |
| 20260902060955 | 81 | 293 | 0.0 | 0.0 | 0.00 | 0.03 | 0.00 | 81 | 1012.9 |
| 20260902060455 | 81 | 293 | 0.0 | 0.0 | 0.00 | 0.03 | 0.00 | 81 | 1012.9 |
| 20260902055955 | 81 | 293 | 0.0 | 0.0 | 0.00 | 0.03 | 0.00 | 81 | 1012.9 |
| 20260902055455 | 81 | 293 | 0.0 | 0.0 | 0.00 | 0.03 | 0.00 | 82 | 1012.9 |
| 20260902054956 | 81 | 293 | 0.0 | 0.0 | 0.00 | 0.03 | 0.00 | 82 | 1012.8 |
| 20260902054455 | 81 | 293 | 0.0 | 0.0 | 0.00 | 0.03 | 0.00 | 82 | 1013.0 |
| 20260902053955 | 81 | 293 | 0.0 | 1.0 | 0.00 | 0.03 | 0.00 | 82 | 1013.0 |
| 20260902053455 | 81 | 293 | 0.0 | 2.0 | 0.00 | 0.03 | 0.00 | 82 | 1012.9 |
| 20260902052955 | 80 | 293 | 1.0 | 2.0 | 0.00 | 0.03 | 0.00 | 82 | 1012.9 |
| 20260902052455 | 80 | 293 | 0.0 | 2.0 | 0.00 | 0.03 | 0.00 | 82 | 1012.9 |
| 20260902051958 | 80 | 163 | 0.0 | 0.0 | 0.00 | 0.03 | 0.00 | 83 | 1013.2 |
| 20260902051455 | 80 | 163 | 0.0 | 0.0 | 0.00 | 0.03 | 0.00 | 83 | 1013.1 |
| 20260902050956 | 80 | 163 | 0.0 | 1.0 | 0.00 | 0.03 | 0.00 | 83 | 1013.2 |
| 20260902050455 | 80 | 163 | 0.0 | 0.0 | 0.00 | 0.03 | 0.00 | 83 | 1013.2 |
| 20260902045955 | 80 | 163 | 0.0 | 0.0 | 0.00 | 0.03 | 0.00 | 84 | 1013.1 |
| 20260902045455 | 80 | 163 | 0.0 | 0.0 | 0.00 | 0.03 | 0.00 | 83 | 1013.1 |
| 20260902044955 | 80 | 163 | 0.0 | 0.0 | 0.00 | 0.03 | 0.00 | 83 | 1013.0 |
| 20260902044456 | 80 | 163 | 0.0 | 0.0 | 0.00 | 0.03 | 0.00 | 83 | 1013.1 |
| 20260902043955 | 80 | 163 | 0.0 | 0.0 | 0.00 | 0.03 | 0.00 | 83 | 1013.1 |
| 20260902043455 | 80 | 163 | 0.0 | 0.0 | 0.00 | 0.03 | 0.00 | 83 | 1013.2 |
| 20260902042955 | 80 | 163 | 0.0 | 0.0 | 0.00 | 0.03 | 0.00 | 84 | 1013.3 |
| 20260902042455 | 80 | 163 | 0.0 | 0.0 | 0.00 | 0.03 | 0.00 | 84 | 1013.3 |
| 20260902041955 | 80 | 163 | 0.0 | 0.0 | 0.00 | 0.03 | 0.00 | 84 | 1013.2 |
| 20260902041456 | 80 | 163 | 0.0 | 0.0 | 0.00 | 0.03 | 0.00 | 84 | 1013.3 |
| 20260902040958 | 80 | 163 | 0.0 | 0.0 | 0.00 | 0.03 | 0.00 | 84 | 1013.4 |
| 20260902040456 | 80 | 163 | 0.0 | 0.0 | 0.00 | 0.03 | 0.00 | 84 | 1013.5 |
| 20260902035955 | 80 | 163 | 0.0 | 0.0 | 0.00 | 0.03 | 0.00 | 85 | 1013.5 |
| 20260902035455 | 80 | 163 | 0.0 | 0.0 | 0.00 | 0.03 | 0.00 | 85 | 1013.4 |
| 20260902034955 | 80 | 163 | 0.0 | 0.0 | 0.00 | 0.03 | 0.00 | 85 | 1013.4 |
| 20260902034455 | 80 | 163 | 0.0 | 0.0 | 0.00 | 0.03 | 0.00 | 85 | 1013.5 |
| 20260902033955 | 80 | 163 | 0.0 | 0.0 | 0.00 | 0.03 | 0.00 | 85 | 1013.4 |
| 20260902033456 | 80 | 163 | 0.0 | 0.0 | 0.00 | 0.03 | 0.00 | 86 | 1013.6 |
| 20260902032955 | 80 | 163 | 0.0 | 0.0 | 0.00 | 0.03 | 0.00 | 86 | 1013.5 |
| 20260902032455 | 80 | 163 | 0.0 | 0.0 | 0.00 | 0.03 | 0.00 | 85 | 1013.4 |
| 20260902031955 | 80 | 163 | 0.0 | 0.0 | 0.00 | 0.03 | 0.00 | 86 | 1013.3 |
| 20260902031455 | 80 | 163 | 0.0 | 0.0 | 0.00 | 0.03 | 0.00 | 86 | 1013.4 |
| 20260902030955 | 80 | 163 | 0.0 | 0.0 | 0.00 | 0.03 | 0.00 | 86 | 1013.3 |
| 20260902030455 | 80 | 163 | 0.0 | 0.0 | 0.00 | 0.03 | 0.00 | 86 | 1013.3 |
| 20260902025959 | 80 | 163 | 0.0 | 0.0 | 0.00 | 0.03 | 0.00 | 86 | 1013.1 |
| 20260902025455 | 80 | 163 | 0.0 | 0.0 | 0.00 | 0.03 | 0.00 | 86 | 1013.1 |
| 20260902024958 | 80 | 163 | 0.0 | 0.0 | 0.00 | 0.03 | 0.00 | 86 | 1013.0 |
| 20260902024458 | 80 | 163 | 0.0 | 0.0 | 0.00 | 0.03 | 0.00 | 86 | 1012.9 |
| 20260902023958 | 80 | 163 | 0.0 | 0.0 | 0.00 | 0.03 | 0.00 | 86 | 1012.8 |
| 20260902023455 | 80 | 163 | 0.0 | 0.0 | 0.00 | 0.03 | 0.00 | 87 | 1012.7 |
| 20260902022956 | 80 | 163 | 0.0 | 0.0 | 0.00 | 0.03 | 0.00 | 87 | 1012.6 |
| 20260902022455 | 80 | 163 | 0.0 | 0.0 | 0.00 | 0.03 | 0.00 | 87 | 1012.6 |
| 20260902021955 | 80 | 163 | 0.0 | 0.0 | 0.00 | 0.03 | 0.00 | 87 | 1012.4 |
| 20260902021455 | 79 | 163 | 0.0 | 0.0 | 0.00 | 0.03 | 0.00 | 88 | 1012.3 |
| 20260902020955 | 79 | 163 | 0.0 | 0.0 | 0.00 | 0.03 | 0.00 | 88 | 1012.3 |
| 20260902020455 | 79 | 163 | 0.0 | 0.0 | 0.00 | 0.03 | 0.00 | 88 | 1012.4 |
| 20260902015955 | 79 | 163 | 0.0 | 0.0 | 0.00 | 0.03 | 0.00 | 88 | 1012.3 |
| 20260902015459 | 79 | 163 | 0.0 | 0.0 | 0.00 | 0.03 | 0.00 | 88 | 1012.3 |
| 20260902014955 | 79 | 163 | 0.0 | 0.0 | 0.00 | 0.03 | 0.00 | 88 | 1012.1 |
| 20260902014455 | 79 | 163 | 0.0 | 0.0 | 0.00 | 0.03 | 0.00 | 87 | 1011.9 |
| 20260902013955 | 79 | 163 | 0.0 | 0.0 | 0.00 | 0.03 | 0.00 | 87 | 1011.9 |
| 20260902013455 | 79 | 163 | 0.0 | 0.0 | 0.00 | 0.03 | 0.00 | 87 | 1012.1 |
| 20260902012955 | 79 | 163 | 0.0 | 0.0 | 0.00 | 0.03 | 0.00 | 88 | 1012.0 |
| 20260902012455 | 79 | 163 | 0.0 | 0.0 | 0.00 | 0.03 | 0.00 | 87 | 1012.0 |
| 20260902011955 | 79 | 163 | 0.0 | 0.0 | 0.00 | 0.03 | 0.00 | 87 | 1011.9 |
| 20260902011455 | 79 | 163 | 0.0 | 0.0 | 0.00 | 0.03 | 0.00 | 87 | 1012.0 |
| 20260902010955 | 80 | 163 | 0.0 | 0.0 | 0.00 | 0.03 | 0.00 | 87 | 1012.0 |
| 20260902010455 | 80 | 163 | 0.0 | 0.0 | 0.00 | 0.03 | 0.00 | 88 | 1012.0 |
| 20260902005958 | 80 | 163 | 0.0 | 0.0 | 0.00 | 0.03 | 0.00 | 87 | 1011.9 |
| 20260902005456 | 80 | 163 | 0.0 | 0.0 | 0.00 | 0.03 | 0.00 | 87 | 1012.0 |
| 20260902004955 | 80 | 163 | 0.0 | 0.0 | 0.00 | 0.03 | 0.00 | 87 | 1012.0 |
| 20260902004458 | 80 | 163 | 0.0 | 0.0 | 0.00 | 0.03 | 0.00 | 87 | 1012.1 |
| 20260902003955 | 80 | 163 | 0.0 | 0.0 | 0.00 | 0.03 | 0.00 | 87 | 1012.3 |
| 20260902003458 | 80 | 163 | 0.0 | 0.0 | 0.00 | 0.03 | 0.00 | 87 | 1012.1 |
| 20260902002955 | 80 | 163 | 0.0 | 0.0 | 0.00 | 0.03 | 0.00 | 86 | 1012.2 |
| 20260902002459 | 80 | 163 | 0.0 | 0.0 | 0.01 | 0.03 | 0.00 | 87 | 1012.3 |
| 20260902001955 | 80 | 163 | 0.0 | 0.0 | 0.01 | 0.03 | 0.00 | 86 | 1012.1 |
| 20260902001455 | 80 | 163 | 0.0 | 0.0 | 0.01 | 0.03 | 0.00 | 86 | 1012.1 |
| 20260902000955 | 80 | 163 | 0.0 | 0.0 | 0.01 | 0.03 | 0.00 | 86 | 1012.1 |
| 20260902000455 | 80 | 163 | 0.0 | 0.0 | 0.01 | 0.03 | 0.00 | 87 | 1012.0 |
| 20260901235955 | 80 | 163 | 0.0 | 0.0 | 0.01 | 0.03 | 0.00 | 86 | 1012.0 |
| 20260901235456 | 80 | 163 | 0.0 | 0.0 | 0.01 | 0.03 | 0.00 | 85 | 1012.0 |
| 20260901234955 | 80 | 163 | 0.0 | 0.0 | 0.01 | 0.03 | 0.00 | 86 | 1012.2 |
| 20260901234455 | 80 | 163 | 0.0 | 0.0 | 0.03 | 0.03 | 0.00 | 86 | 1012.3 |
| 20260901233955 | 80 | 163 | 0.0 | 0.0 | 0.03 | 0.03 | 0.00 | 86 | 1012.2 |
| 20260901233458 | 81 | 163 | 0.0 | 0.0 | 0.03 | 0.03 | 0.00 | 86 | 1012.2 |
| 20260901232958 | 81 | 163 | 0.0 | 0.0 | 0.03 | 0.03 | 0.00 | 86 | 1012.5 |
| 20260901232456 | 81 | 163 | 0.0 | 0.0 | 0.02 | 0.02 | 0.00 | 86 | 1012.5 |
| 20260901231955 | 81 | 162 | 0.0 | 0.0 | 0.02 | 0.02 | 0.00 | 85 | 1012.6 |
| 20260901231455 | 81 | 162 | 0.0 | 0.0 | 0.02 | 0.02 | 0.00 | 84 | 1012.4 |
| 20260901230955 | 82 | 162 | 0.0 | 1.0 | 0.02 | 0.02 | 0.00 | 83 | 1012.8 |
| 20260901230455 | 82 | 162 | 0.0 | 2.0 | 0.02 | 0.02 | 0.00 | 81 | 1012.9 |
| 20260901225958 | 83 | 150 | 0.0 | 0.0 | 0.02 | 0.02 | 0.00 | 80 | 1012.8 |
| 20260901225456 | 84 | 150 | 0.0 | 1.0 | 0.02 | 0.02 | 0.00 | 78 | 1013.0 |
| 20260901224955 | 85 | 149 | 1.0 | 4.0 | 0.02 | 0.02 | 0.00 | 76 | 1013.0 |
| 20260901224455 | 86 | 31 | 1.0 | 3.0 | 0.00 | 0.00 | 0.00 | 72 | 1013.1 |
| 20260901223955 | 87 | 77 | 2.0 | 2.0 | 0.00 | 0.00 | 0.00 | 70 | 1013.0 |
| 20260901223455 | 88 | 336 | 3.0 | 4.0 | 0.00 | 0.00 | 0.00 | 70 | 1013.1 |
| 20260901222956 | 89 | 154 | 1.0 | 4.0 | 0.00 | 0.00 | 0.00 | 70 | 1013.0 |
| 20260901222456 | 89 | 103 | 1.0 | 2.0 | 0.00 | 0.00 | 0.00 | 68 | 1013.1 |
| 20260901221955 | 90 | 126 | 1.0 | 8.0 | 0.00 | 0.00 | 0.00 | 66 | 1013.0 |
| 20260901221455 | 90 | 298 | 1.0 | 2.0 | 0.00 | 0.00 | 0.00 | 62 | 1012.7 |
| 20260901220955 | 90 | 276 | 0.0 | 1.0 | 0.00 | 0.00 | 0.00 | 64 | 1012.5 |
| 20260901220455 | 90 | 276 | 0.0 | 1.0 | 0.00 | 0.00 | 0.00 | 64 | 1012.5 |
| 20260901215958 | 90 | 276 | 0.0 | 0.0 | 0.00 | 0.00 | 0.00 | 64 | 1012.4 |
| 20260901215456 | 90 | 276 | 0.0 | 0.0 | 0.00 | 0.00 | 0.00 | 63 | 1012.7 |
| 20260901214958 | 90 | 276 | 0.0 | 0.0 | 0.00 | 0.00 | 0.00 | 64 | 1012.6 |
| 20260901214458 | 90 | 276 | 0.0 | 0.0 | 0.00 | 0.00 | 0.00 | 68 | 1012.6 |
| 20260901213955 | 90 | 276 | 0.0 | 0.0 | 0.00 | 0.00 | 0.00 | 68 | 1012.7 |
| 20260901213455 | 90 | 276 | 0.0 | 0.0 | 0.00 | 0.00 | 0.00 | 69 | 1012.8 |
| 20260901212955 | 90 | 276 | 0.0 | 0.0 | 0.00 | 0.00 | 0.00 | 68 | 1012.7 |
| 20260901212456 | 89 | 276 | 0.0 | 1.0 | 0.00 | 0.00 | 0.00 | 66 | 1012.5 |
| 20260901211955 | 89 | 276 | 0.0 | 1.0 | 0.00 | 0.00 | 0.00 | 66 | 1012.6 |
| 20260901211455 | 89 | 276 | 1.0 | 1.0 | 0.00 | 0.00 | 0.00 | 67 | 1012.7 |
| 20260901210958 | 89 | 276 | 0.0 | 2.0 | 0.00 | 0.00 | 0.00 | 65 | 1012.7 |
| 20260901210455 | 89 | 276 | 0.0 | 3.0 | 0.00 | 0.00 | 0.00 | 65 | 1012.6 |
| 20260901205955 | 89 | 240 | 1.0 | 2.0 | 0.00 | 0.00 | 0.00 | 67 | 1012.5 |
| 20260901205456 | 89 | 220 | 0.0 | 1.0 | 0.00 | 0.00 | 0.00 | 67 | 1012.6 |
| 20260901204955 | 89 | 220 | 1.0 | 2.0 | 0.00 | 0.00 | 0.00 | 65 | 1012.4 |
| 20260901204455 | 89 | 292 | 0.0 | 3.0 | 0.00 | 0.00 | 0.00 | 67 | 1012.5 |
| 20260901203955 | 89 | 292 | 0.0 | 2.0 | 0.00 | 0.00 | 0.00 | 67 | 1012.6 |
| 20260901203458 | 89 | 292 | 0.0 | 2.0 | 0.00 | 0.00 | 0.00 | 67 | 1012.7 |
| 20260901202956 | 89 | 292 | 0.0 | 1.0 | 0.00 | 0.00 | 0.00 | 69 | 1012.9 |
| 20260901202456 | 89 | 292 | 0.0 | 2.0 | 0.00 | 0.00 | 0.00 | 68 | 1012.8 |
| 20260901201955 | 89 | 290 | 0.0 | 1.0 | 0.00 | 0.00 | 0.00 | 69 | 1013.1 |
| 20260901201455 | 89 | 290 | 0.0 | 1.0 | 0.00 | 0.00 | 0.00 | 70 | 1013.4 |
| 20260901200955 | 88 | 290 | 1.0 | 2.0 | 0.00 | 0.00 | 0.00 | 69 | 1013.3 |
| 20260901200455 | 88 | 290 | 0.0 | 1.0 | 0.00 | 0.00 | 0.00 | 69 | 1013.6 |
| 20260901195955 | 88 | 290 | 0.0 | 2.0 | 0.00 | 0.00 | 0.00 | 70 | 1013.8 |
| 20260901195459 | 88 | 290 | 0.0 | 2.0 | 0.00 | 0.00 | 0.00 | 70 | 1014.0 |
| 20260901194955 | 88 | 294 | 0.0 | 2.0 | 0.00 | 0.00 | 0.00 | 69 | 1014.2 |
| 20260901194455 | 88 | 294 | 0.0 | 0.0 | 0.00 | 0.00 | 0.00 | 70 | 1014.1 |
| 20260901193955 | 88 | 294 | 0.0 | 0.0 | 0.00 | 0.00 | 0.00 | 71 | 1014.2 |
| 20260901193458 | 88 | 294 | 0.0 | 1.0 | 0.00 | 0.00 | 0.00 | 71 | 1014.2 |
| 20260901192958 | 88 | 298 | 0.0 | 1.0 | 0.00 | 0.00 | 0.00 | 72 | 1014.1 |
| 20260901192456 | 88 | 298 | 0.0 | 1.0 | 0.00 | 0.00 | 0.00 | 72 | 1013.9 |
| 20260901191955 | 88 | 298 | 0.0 | 1.0 | 0.00 | 0.00 | 0.00 | 72 | 1013.8 |
| 20260901191455 | 87 | 298 | 1.0 | 1.0 | 0.00 | 0.00 | 0.00 | 71 | 1013.8 |
| 20260901190958 | 87 | 298 | 0.0 | 1.0 | 0.00 | 0.00 | 0.00 | 72 | 1013.8 |
| 20260901190455 | 88 | 298 | 0.0 | 0.0 | 0.00 | 0.00 | 0.00 | 72 | 1013.9 |
| 20260901185958 | 88 | 298 | 0.0 | 1.0 | 0.00 | 0.00 | 0.00 | 71 | 1014.0 |
| 20260901185456 | 88 | 298 | 0.0 | 1.0 | 0.00 | 0.00 | 0.00 | 71 | 1014.1 |
| 20260901184955 | 88 | 298 | 0.0 | 0.0 | 0.00 | 0.00 | 0.00 | 70 | 1014.2 |
| 20260901184455 | 87 | 298 | 0.0 | 0.0 | 0.00 | 0.00 | 0.00 | 70 | 1014.2 |
| 20260901183958 | 87 | 298 | 0.0 | 1.0 | 0.00 | 0.00 | 0.00 | 71 | 1014.2 |
| 20260901183455 | 87 | 298 | 0.0 | 1.0 | 0.00 | 0.00 | 0.00 | 72 | 1014.2 |
| 20260901182955 | 87 | 298 | 0.0 | 1.0 | 0.00 | 0.00 | 0.00 | 69 | 1014.3 |
| 20260901182456 | 87 | 298 | 0.0 | 2.0 | 0.00 | 0.00 | 0.00 | 71 | 1014.4 |
| 20260901181955 | 87 | 298 | 0.0 | 3.0 | 0.00 | 0.00 | 0.00 | 71 | 1014.3 |
| 20260901181455 | 87 | 298 | 0.0 | 1.0 | 0.00 | 0.00 | 0.00 | 71 | 1014.4 |
| 20260901180955 | 87 | 298 | 0.0 | 2.0 | 0.00 | 0.00 | 0.00 | 70 | 1014.7 |
| 20260901180456 | 87 | 298 | 0.0 | 2.0 | 0.00 | 0.00 | 0.00 | 71 | 1014.7 |
| 20260901175955 | 87 | 298 | 0.0 | 2.0 | 0.00 | 0.00 | 0.00 | 73 | 1014.9 |